�������l�o���
Date,Time,MP-1(��Sv/h),MP-2(��Sv/h),MP-3(��Sv/h),MP-4(��Sv/h),MP-5(��Sv/h),MP-6(��Sv/h),MP-7(��Sv/h),MP-8(��Sv/h),����,����(m/s),���J
2024/01/01,00:00,0.505,0.756,0.480,0.959,0.685,0.312,0.557,0.522,�k��,5.4,��
2024/01/01,00:10,0.504,0.758,0.480,0.955,0.685,0.313,0.557,0.521,�k��,6.4,��
2024/01/01,00:20,0.504,0.756,0.478,0.956,0.682,0.313,0.558,0.521,�k�k��,6.3,��
2024/01/01,00:30,0.502,0.757,0.479,0.958,0.685,0.312,0.557,0.522,�k�k��,5.3,��
2024/01/01,00:40,0.503,0.756,0.478,0.956,0.683,0.313,0.558,0.523,�k��,6.2,��
2024/01/01,00:50,0.503,0.756,0.478,0.957,0.683,0.312,0.558,0.523,�k��,7.0,��
2024/01/01,01:00,0.501,0.757,0.478,0.957,0.683,0.313,0.559,0.522,�k��,6.9,��
2024/01/01,01:10,0.500,0.755,0.478,0.957,0.683,0.311,0.557,0.522,�k��,6.8,��
2024/01/01,01:20,0.502,0.757,0.476,0.958,0.681,0.312,0.558,0.521,�k��,5.3,��
2024/01/01,01:30,0.503,0.759,0.478,0.957,0.684,0.311,0.558,0.521,�k��,6.7,��
2024/01/01,01:40,0.503,0.755,0.478,0.960,0.685,0.312,0.558,0.521,�k��,8.1,��
2024/01/01,01:50,0.504,0.757,0.479,0.959,0.687,0.312,0.559,0.521,�k�k��,8.1,��
2024/01/01,02:00,0.503,0.758,0.478,0.957,0.683,0.311,0.560,0.521,�k�k��,8.8,��
2024/01/01,02:10,0.502,0.757,0.480,0.957,0.685,0.311,0.558,0.522,�k�k��,8.1,��
2024/01/01,02:20,0.502,0.758,0.479,0.959,0.682,0.311,0.558,0.522,�k�k��,7.8,��
2024/01/01,02:30,0.503,0.760,0.478,0.960,0.684,0.312,0.559,0.522,�k�k��,6.9,��
2024/01/01,02:40,0.504,0.758,0.478,0.958,0.683,0.311,0.558,0.522,�k�k��,5.9,��
2024/01/01,02:50,0.502,0.759,0.479,0.959,0.684,0.311,0.557,0.522,�k�k��,5.6,��
2024/01/01,03:00,0.503,0.758,0.478,0.957,0.685,0.311,0.557,0.521,�k�k��,5.5,��
2024/01/01,03:10,0.503,0.758,0.479,0.960,0.684,0.311,0.558,0.522,�k�k��,5.5,��
2024/01/01,03:20,0.502,0.759,0.478,0.960,0.685,0.311,0.559,0.522,�k�k��,4.2,��
2024/01/01,03:30,0.501,0.760,0.479,0.958,0.685,0.310,0.559,0.521,�k�k��,4.0,��
2024/01/01,03:40,0.504,0.759,0.479,0.958,0.684,0.311,0.559,0.522,�k�k��,4.4,��
2024/01/01,03:50,0.504,0.758,0.479,0.958,0.683,0.312,0.558,0.523,�k�k��,5.7,��
2024/01/01,04:00,0.502,0.759,0.478,0.962,0.685,0.310,0.559,0.521,�k�k��,8.2,��
2024/01/01,04:10,0.505,0.760,0.479,0.960,0.685,0.311,0.559,0.521,�k,8.8,�L
2024/01/01,04:20,0.505,0.759,0.478,0.960,0.687,0.310,0.559,0.522,�k,9.0,��
2024/01/01,04:30,0.504,0.759,0.478,0.959,0.684,0.311,0.560,0.521,�k,8.9,��
2024/01/01,04:40,0.505,0.757,0.479,0.959,0.684,0.311,0.558,0.522,�k,9.5,��
2024/01/01,04:50,0.502,0.759,0.479,0.960,0.686,0.311,0.556,0.521,�k�k��,10.5,��
2024/01/01,05:00,0.504,0.761,0.479,0.960,0.686,0.311,0.556,0.521,�k�k��,11.3,��
2024/01/01,05:10,0.506,0.757,0.480,0.961,0.684,0.310,0.556,0.520,�k�k��,11.1,��
2024/01/01,05:20,0.504,0.758,0.478,0.960,0.685,0.311,0.556,0.521,�k�k��,8.1,��
2024/01/01,05:30,0.504,0.759,0.478,0.958,0.686,0.311,0.556,0.521,�k�k��,9.6,��
2024/01/01,05:40,0.504,0.759,0.478,0.960,0.687,0.311,0.555,0.521,�k�k��,6.7,��
2024/01/01,05:50,0.503,0.760,0.479,0.961,0.686,0.309,0.557,0.521,�k�k��,6.2,��
2024/01/01,06:00,0.505,0.761,0.479,0.960,0.684,0.311,0.557,0.521,�k,5.4,��
2024/01/01,06:10,0.503,0.760,0.477,0.962,0.686,0.311,0.557,0.522,�k,5.3,��
2024/01/01,06:20,0.505,0.760,0.477,0.962,0.687,0.310,0.556,0.522,�k,3.9,��
2024/01/01,06:30,0.504,0.759,0.477,0.962,0.686,0.310,0.556,0.522,�k,6.9,��
2024/01/01,06:40,0.503,0.761,0.478,0.959,0.685,0.311,0.557,0.521,�k,7.4,��
2024/01/01,06:50,0.503,0.761,0.477,0.960,0.684,0.309,0.557,0.521,�k�k��,6.8,��
2024/01/01,07:00,0.502,0.760,0.478,0.964,0.683,0.310,0.557,0.521,�k�k��,5.4,��
2024/01/01,07:10,0.503,0.758,0.477,0.958,0.686,0.311,0.557,0.520,�k�k��,7.2,��
2024/01/01,07:20,0.503,0.761,0.477,0.958,0.685,0.310,0.557,0.520,�k�k��,6.2,��
2024/01/01,07:30,0.503,0.757,0.478,0.960,0.685,0.310,0.557,0.521,�k�k��,5.6,��
2024/01/01,07:40,0.504,0.759,0.478,0.961,0.685,0.310,0.555,0.521,�k�k��,7.0,��
2024/01/01,07:50,0.503,0.760,0.477,0.959,0.685,0.310,0.557,0.520,�k��,7.8,��
2024/01/01,08:00,0.502,0.757,0.477,0.961,0.684,0.310,0.557,0.522,�k�k��,7.9,��
2024/01/01,08:10,0.503,0.760,0.477,0.961,0.685,0.309,0.557,0.520,�k��,5.4,��
2024/01/01,08:20,0.504,0.759,0.478,0.961,0.687,0.309,0.558,0.522,�k��,5.3,��
2024/01/01,08:30,0.504,0.760,0.477,0.962,0.686,0.309,0.559,0.520,�k��,5.4,��
2024/01/01,08:40,0.505,0.760,0.478,0.963,0.685,0.310,0.560,0.522,�k�k��,6.9,��
2024/01/01,08:50,0.504,0.759,0.478,0.961,0.687,0.310,0.558,0.521,�k�k��,7.3,��
2024/01/01,09:00,0.504,0.761,0.478,0.959,0.686,0.310,0.559,0.521,�k��,9.2,��
2024/01/01,09:10,0.505,0.760,0.477,0.960,0.687,0.310,0.558,0.522,�k�k��,8.7,��
2024/01/01,09:20,0.504,0.764,0.478,0.963,0.688,0.310,0.558,0.521,�k�k��,12.0,��
2024/01/01,09:30,0.504,0.762,0.478,0.961,0.687,0.310,0.557,0.522,�k�k��,8.5,��
2024/01/01,09:40,0.505,0.763,0.477,0.962,0.688,0.311,0.556,0.522,�k�k��,11.8,��
2024/01/01,09:50,0.504,0.762,0.480,0.960,0.687,0.309,0.557,0.522,�k�k��,9.8,��
2024/01/01,10:00,0.505,0.761,0.479,0.961,0.686,0.311,0.558,0.520,�k�k��,11.6,��
2024/01/01,10:10,0.504,0.763,0.479,0.963,0.686,0.310,0.557,0.521,�k��,9.0,��
2024/01/01,10:20,0.506,0.762,0.479,0.962,0.689,0.309,0.557,0.522,�k��,9.8,��
2024/01/01,10:30,0.505,0.762,0.481,0.962,0.687,0.310,0.556,0.521,�k��,8.9,��
2024/01/01,10:40,0.506,0.764,0.480,0.964,0.688,0.312,0.555,0.521,�k�k��,8.5,��
2024/01/01,10:50,0.505,0.764,0.479,0.964,0.688,0.310,0.558,0.522,�k,7.4,��
2024/01/01,11:00,0.507,0.762,0.479,0.964,0.691,0.310,0.557,0.523,�k,8.1,��
2024/01/01,11:10,0.506,0.763,0.480,0.963,0.689,0.311,0.557,0.522,�k,9.1,��
2024/01/01,11:20,0.507,0.763,0.479,0.964,0.689,0.311,0.556,0.522,�k,9.1,��
2024/01/01,11:30,0.505,0.762,0.479,0.962,0.691,0.310,0.555,0.522,�k,8.3,��
2024/01/01,11:40,0.507,0.761,0.479,0.965,0.689,0.311,0.555,0.524,�k,9.0,��
2024/01/01,11:50,0.508,0.764,0.480,0.965,0.688,0.311,0.555,0.522,�k,8.0,��
2024/01/01,12:00,0.507,0.763,0.480,0.964,0.690,0.312,0.557,0.522,�k,8.8,��
2024/01/01,12:10,0.506,0.763,0.480,0.964,0.690,0.312,0.555,0.523,�k,7.7,��
2024/01/01,12:20,0.508,0.765,0.481,0.966,0.691,0.311,0.557,0.523,�k,9.3,��
2024/01/01,12:30,0.508,0.765,0.481,0.964,0.690,0.311,0.557,0.523,�k,8.5,��
2024/01/01,12:40,0.506,0.764,0.483,0.964,0.692,0.311,0.556,0.525,�k�k��,10.2,��
2024/01/01,12:50,0.509,0.764,0.481,0.966,0.691,0.313,0.555,0.523,�k,7.4,��
2024/01/01,13:00,0.507,0.765,0.482,0.965,0.691,0.311,0.557,0.524,�k,6.1,��
2024/01/01,13:10,0.505,0.765,0.481,0.967,0.691,0.311,0.556,0.521,�k,7.2,��
2024/01/01,13:20,0.507,0.765,0.482,0.966,0.693,0.310,0.556,0.521,�k,6.2,��
2024/01/01,13:30,0.507,0.765,0.482,0.967,0.691,0.311,0.555,0.521,�k,7.1,��
2024/01/01,13:40,0.509,0.764,0.482,0.966,0.692,0.310,0.559,0.521,�k,7.4,��
2024/01/01,13:50,0.508,0.767,0.482,0.966,0.692,0.312,0.556,0.521,�k�k��,7.5,��
2024/01/01,14:00,0.508,0.766,0.482,0.966,0.691,0.311,0.558,0.522,�k,8.7,��
2024/01/01,14:10,0.508,0.766,0.482,0.967,0.693,0.311,0.557,0.522,�k,6.7,��
2024/01/01,14:20,0.507,0.767,0.483,0.969,0.692,0.312,0.556,0.523,�k,6.1,��
2024/01/01,14:30,0.509,0.767,0.482,0.967,0.692,0.311,0.556,0.525,�k,7.3,��
2024/01/01,14:40,0.508,0.766,0.482,0.965,0.692,0.312,0.556,0.523,�k�k��,5.9,��
2024/01/01,14:50,0.507,0.765,0.481,0.966,0.692,0.311,0.556,0.522,�k�k��,6.9,��
2024/01/01,15:00,0.508,0.765,0.483,0.967,0.694,0.312,0.556,0.523,�k�k��,7.1,��
2024/01/01,15:10,0.508,0.767,0.482,0.967,0.693,0.311,0.557,0.523,�k��,4.1,��
2024/01/01,15:20,0.509,0.770,0.483,0.967,0.692,0.311,0.556,0.522,�k�k��,7.1,��
2024/01/01,15:30,0.507,0.768,0.483,0.966,0.693,0.311,0.558,0.523,�k�k��,6.6,��
2024/01/01,15:40,0.508,0.770,0.484,0.967,0.692,0.311,0.559,0.523,�k�k��,7.7,��
2024/01/01,15:50,0.508,0.769,0.482,0.968,0.692,0.311,0.559,0.525,�k�k��,6.1,��
2024/01/01,16:00,0.508,0.768,0.483,0.967,0.693,0.311,0.558,0.522,�k�k��,5.1,��
2024/01/01,16:10,0.508,0.768,0.482,0.968,0.694,0.311,0.559,0.523,�k�k��,6.6,��
2024/01/01,16:20,0.508,0.767,0.482,0.966,0.692,0.311,0.558,0.522,�k��,4.9,��
2024/01/01,16:30,0.507,0.768,0.481,0.967,0.692,0.310,0.558,0.522,�k�k��,5.0,��
2024/01/01,16:40,0.507,0.767,0.480,0.967,0.691,0.311,0.557,0.522,�k,4.9,��
2024/01/01,16:50,0.507,0.768,0.484,0.967,0.692,0.310,0.559,0.524,�k,6.7,��
2024/01/01,17:00,0.509,0.767,0.482,0.968,0.691,0.311,0.558,0.523,�k�k��,6.1,��
2024/01/01,17:10,0.507,0.768,0.483,0.967,0.692,0.311,0.558,0.522,�k�k��,4.9,��
2024/01/01,17:20,0.508,0.767,0.482,0.968,0.688,0.311,0.559,0.522,�k�k��,5.1,��
2024/01/01,17:30,0.507,0.768,0.482,0.968,0.692,0.310,0.556,0.524,�k�k��,4.5,��
2024/01/01,17:40,0.508,0.767,0.482,0.967,0.692,0.311,0.557,0.521,�k,4.4,��
2024/01/01,17:50,0.507,0.767,0.482,0.966,0.693,0.310,0.557,0.521,�k�k��,4.9,��
2024/01/01,18:00,0.507,0.768,0.481,0.967,0.692,0.311,0.557,0.521,�k��,3.6,��
2024/01/01,18:10,0.506,0.766,0.484,0.968,0.691,0.309,0.557,0.522,�k��,2.9,��
2024/01/01,18:20,0.508,0.767,0.482,0.969,0.692,0.309,0.558,0.521,��,2.2,��
2024/01/01,18:30,0.506,0.768,0.483,0.967,0.691,0.310,0.557,0.522,���k��,2.8,��
2024/01/01,18:40,0.506,0.767,0.482,0.968,0.692,0.308,0.558,0.523,�k��,2.8,��
2024/01/01,18:50,0.505,0.768,0.482,0.967,0.692,0.309,0.558,0.521,�k��,3.6,��
2024/01/01,19:00,0.506,0.767,0.482,0.965,0.692,0.310,0.557,0.521,���k��,3.2,��
2024/01/01,19:10,0.507,0.769,0.482,0.967,0.691,0.310,0.557,0.522,�k��,1.9,��
2024/01/01,19:20,0.507,0.768,0.483,0.966,0.690,0.309,0.558,0.522,�k��,1.9,��
2024/01/01,19:30,0.508,0.766,0.479,0.967,0.692,0.310,0.558,0.521,�k��,2.2,��
2024/01/01,19:40,0.509,0.767,0.481,0.969,0.691,0.311,0.558,0.523,�k��,2.0,��
2024/01/01,19:50,0.507,0.770,0.481,0.966,0.691,0.309,0.558,0.522,�k��,2.5,��
2024/01/01,20:00,0.509,0.769,0.482,0.967,0.692,0.311,0.557,0.522,���k��,1.7,��
2024/01/01,20:10,0.508,0.769,0.482,0.965,0.691,0.311,0.557,0.521,���k��,1.7,��
2024/01/01,20:20,0.508,0.768,0.482,0.969,0.692,0.309,0.558,0.522,�k��,1.7,��
2024/01/01,20:30,0.508,0.766,0.481,0.965,0.694,0.309,0.558,0.522,�k�k��,2.6,��
2024/01/01,20:40,0.506,0.768,0.481,0.969,0.692,0.310,0.558,0.522,�k�k��,2.2,��
2024/01/01,20:50,0.506,0.769,0.480,0.967,0.691,0.311,0.557,0.521,�k�k��,1.7,��
2024/01/01,21:00,0.508,0.768,0.482,0.968,0.693,0.310,0.557,0.522,�k�k��,2.3,��
2024/01/01,21:10,0.507,0.769,0.481,0.966,0.691,0.310,0.557,0.521,�k�k��,2.5,��
2024/01/01,21:20,0.507,0.767,0.482,0.967,0.692,0.311,0.557,0.521,�k�k��,2.5,��
2024/01/01,21:30,0.509,0.767,0.483,0.966,0.692,0.310,0.557,0.523,�k�k��,0.9,��
2024/01/01,21:40,0.508,0.767,0.481,0.966,0.691,0.310,0.557,0.520,�k��,1.4,��
2024/01/01,21:50,0.507,0.769,0.481,0.967,0.692,0.310,0.557,0.522,���k��,1.5,��
2024/01/01,22:00,0.505,0.770,0.480,0.968,0.693,0.310,0.555,0.522,�k��,2.3,��
2024/01/01,22:10,0.507,0.768,0.481,0.968,0.692,0.310,0.557,0.522,�k��,2.0,��
2024/01/01,22:20,0.507,0.768,0.483,0.967,0.691,0.309,0.556,0.522,�k��,2.2,��
2024/01/01,22:30,0.506,0.767,0.482,0.966,0.692,0.309,0.557,0.521,�k��,2.2,��
2024/01/01,22:40,0.505,0.770,0.481,0.966,0.693,0.310,0.555,0.522,���k��,2.3,��
2024/01/01,22:50,0.507,0.768,0.481,0.968,0.691,0.308,0.556,0.520,�k��,2.3,��
2024/01/01,23:00,0.507,0.770,0.480,0.968,0.692,0.310,0.556,0.520,���k��,2.5,��
2024/01/01,23:10,0.505,0.769,0.481,0.969,0.692,0.309,0.556,0.521,���k��,1.5,��
2024/01/01,23:20,0.507,0.769,0.481,0.967,0.692,0.309,0.557,0.522,���k��,2.0,��
2024/01/01,23:30,0.504,0.768,0.481,0.968,0.691,0.309,0.557,0.522,���k��,1.7,��
2024/01/01,23:40,0.505,0.766,0.481,0.969,0.691,0.309,0.557,0.520,�k��,0.9,��
2024/01/01,23:50,0.506,0.768,0.481,0.968,0.692,0.311,0.556,0.522,��,1.4,��
